FW7700 Weather Reports


time (UTC)temp
F
wind
direction
speed
knots
gust
knots
rain 1hr
in
rain 24hr
in
rain mn
in
humidity
%
barometer
mb
20260504214024 75 199 2.6 5.2 0.00 0.00 0.00 39 1007.8
20260504213003 75 176 3.5 5.2 0.00 0.00 0.00 37 1008.1
20260504211942 76 272 4.3 6.1 0.00 0.00 0.00 37 1007.8
20260504210921 76 198 1.7 1.7 0.00 0.00 0.00 37 1007.8
20260504205900 75 190 0.9 1.7 0.00 0.00 0.00 37 1007.8
20260504204839 75 225 2.6 3.5 0.00 0.00 0.00 39 1007.8
20260504203818 75 191 1.7 1.7 0.00 0.00 0.00 37 1007.8
20260504202757 76 153 3.5 5.2 0.00 0.00 0.00 38 1007.8
20260504201736 75 182 0.9 1.7 0.00 0.00 0.00 38 1008.1
20260504200715 75 205 1.7 2.6 0.00 0.00 0.00 39 1008.5
20260504195654 75 258 4.3 6.1 0.00 0.00 0.00 37 1008.5
20260504194633 74 247 3.5 3.5 0.00 0.00 0.00 38 1008.5
20260504193612 74 179 5.2 7.8 0.00 0.00 0.00 39 1008.5
20260504192551 74 187 3.5 3.5 0.00 0.00 0.00 37 1008.8
20260504191530 74 211 1.7 2.6 0.00 0.00 0.00 38 1009.1
20260504190509 74 148 3.5 3.5 0.00 0.00 0.00 39 1009.1
20260504185448 73 299 3.5 3.5 0.00 0.00 0.00 37 1009.1
20260504184427 73 201 4.3 6.1 0.00 0.00 0.00 38 1009.5
20260504183406 73 151 5.2 7.0 0.00 0.00 0.00 38 1009.5
20260504182345 73 156 3.5 5.2 0.00 0.00 0.00 39 1009.8
20260504181324 72 221 2.6 3.5 0.00 0.00 0.00 39 1009.8
20260504180303 72 234 2.6 3.5 0.00 0.00 0.00 40 1010.2
20260504175242 73 225 3.5 3.5 0.00 0.00 0.00 40 1010.2
20260504174221 71 243 4.3 5.2 0.00 0.00 0.00 40 1010.2
20260504173200 71 171 2.6 3.5 0.00 0.00 0.00 39 1010.5
20260504172139 71 227 1.7 3.5 0.00 0.00 0.00 40 1010.8
20260504171118 70 315 2.6 3.5 0.00 0.00 0.00 40 1010.8
20260504150706 66 164 1.7 2.6 0.00 0.00 0.00 42 1012.2
20260504140500 63 166 2.6 3.5 0.00 0.00 0.00 51 1012.5
20260504130254 56 161 1.7 2.6 0.00 0.00 0.00 57 1012.9
20260504081306 42 136 0.0 0.0 0.00 0.00 0.00 75 1013.5
20260504080245 42 129 0.0 0.0 0.00 0.00 0.00 75 1013.2
20260504050647 47 137 0.0 0.0 0.00 0.00 0.00 65 1013.5
20260504045627 47 140 0.0 0.9 0.00 0.00 0.00 64 1013.9
20260504044606 47 137 0.0 0.0 0.00 0.00 0.00 63 1013.5
20260504043544 47 142 0.0 0.0 0.00 0.00 0.00 63 1013.5
20260504042524 47 140 0.0 0.0 0.00 0.00 0.00 64 1013.5
20260504041503 47 140 0.0 0.0 0.00 0.00 0.00 63 1013.5
20260504040442 48 143 0.0 0.9 0.00 0.00 0.00 62 1013.5
20260504035420 48 142 0.0 0.0 0.00 0.00 0.00 61 1013.2
20260504034400 48 144 0.0 0.0 0.00 0.00 0.00 61 1013.2
20260504033338 48 177 0.0 0.0 0.00 0.00 0.00 61 1013.2
20260504032318 48 135 0.0 0.0 0.00 0.00 0.00 61 1013.2
20260504031257 48 135 0.0 0.0 0.00 0.00 0.00 62 1013.2
20260504030236 48 141 0.0 0.0 0.00 0.00 0.00 62 1013.2
20260504025214 48 141 0.0 0.0 0.00 0.00 0.00 60 1013.2
20260504024153 48 140 0.0 0.0 0.00 0.00 0.00 60 1013.2
20260504023133 48 142 0.0 0.0 0.00 0.00 0.00 60 1013.2
20260504022111 49 142 0.0 0.0 0.00 0.00 0.00 59 1013.2
20260504021051 49 142 0.0 0.0 0.00 0.00 0.00 58 1013.5
20260504020030 49 141 0.0 0.0 0.00 0.00 0.00 56 1012.9
20260504015008 49 139 0.0 0.0 0.00 0.00 0.00 55 1013.2
20260504013947 49 141 0.0 0.0 0.00 0.00 0.00 55 1012.9
20260504012926 50 139 0.0 0.0 0.00 0.00 0.00 54 1013.2
20260504011905 50 142 0.0 0.0 0.00 0.00 0.00 54 1012.9
20260504010844 51 137 0.0 0.0 0.00 0.00 0.00 54 1012.5
20260504005824 51 142 0.0 0.0 0.00 0.00 0.00 52 1012.5
20260504004802 52 150 0.0 0.0 0.00 0.00 0.00 49 1012.5
20260504003741 53 132 0.0 0.0 0.00 0.00 0.00 49 1012.5
20260504002720 55 145 0.0 0.0 0.00 0.00 0.00 45 1012.2
20260504001659 56 195 1.7 1.7 0.00 0.00 0.00 43 1012.2
20260504000638 57 278 0.0 0.9 0.00 0.00 0.00 42 1011.8
20260503235617 58 171 1.7 1.7 0.00 0.00 0.00 41 1011.8
20260503234556 59 285 1.7 1.7 0.00 0.00 0.00 40 1012.2
20260503233535 59 285 1.7 1.7 0.00 0.00 0.00 38 1011.8
20260503232514 60 193 1.7 1.7 0.00 0.00 0.00 38 1011.5
20260503231453 61 174 2.6 2.6 0.00 0.00 0.00 37 1011.8
20260503230432 61 255 3.5 5.2 0.00 0.00 0.00 37 1011.8
20260503225411 61 222 5.2 7.8 0.00 0.00 0.00 36 1011.8
20260503224350 61 357 1.7 1.7 0.00 0.00 0.00 35 1011.5
20260503223329 61 263 1.7 2.6 0.00 0.00 0.00 37 1011.8
20260503222308 61 106 1.7 1.7 0.00 0.00 0.00 36 1011.8
20260503220227 62 175 1.7 2.6 0.00 0.00 0.00 35 1011.8
20260503215205 62 206 4.3 7.8 0.00 0.00 0.00 36 1011.8